EW5961 Weather Reports


Display with metric or nautical units.
time (UTC)temp
F
wind
direction
speed
MPH
gust
MPH
rain 1hr
in
rain 24hr
in
rain mn
in
humidity
%
barometer
mb
20260508050057 84 130 15.0 22.0 0.00 0.00 0.00 75 1011.6
20260508044554 84 130 16.0 23.0 0.00 0.00 0.00 74 1011.6
20260508043054 85 127 12.0 20.0 0.00 0.00 0.00 73 1011.5
20260508041558 85 84 16.0 24.0 0.00 0.00 0.00 72 1011.6
20260508040055 86 134 17.0 26.0 0.00 0.00 0.00 70 1011.2
20260508034557 87 121 15.0 23.0 0.00 0.00 0.00 69 1011.1
20260508033055 87 123 15.0 21.0 0.00 0.00 0.00 68 1010.9
20260508031551 88 130 12.0 25.0 0.00 0.00 0.00 67 1010.6
20260508030151 88 120 16.0 27.0 0.00 0.00 0.00 66 1010.3
20260508024601 89 137 17.0 26.0 0.00 0.00 0.00 64 1009.7
20260508023050 90 140 12.0 23.0 0.00 0.00 0.00 61 1009.5
20260508021549 91 135 12.0 22.0 0.00 0.00 0.00 59 1009.2
20260508020049 92 125 17.0 30.0 0.00 0.00 0.00 57 1009.0
20260508014547 93 119 14.0 24.0 0.00 0.00 0.00 55 1008.8
20260508013047 93 133 16.0 26.0 0.00 0.00 0.00 54 1008.4
20260508011559 94 105 13.0 18.0 0.00 0.00 0.00 52 1008.1
20260508010057 95 114 11.0 20.0 0.00 0.00 0.00 50 1007.9
20260508004556 96 140 10.0 15.0 0.00 0.00 0.00 49 1007.6
20260508003045 96 138 11.0 19.0 0.00 0.00 0.00 48 1007.7
20260508001546 97 123 9.0 13.0 0.00 0.00 0.00 46 1007.7
20260508000043 98 120 11.0 16.0 0.00 0.00 0.00 45 1007.4
20260507234544 99 135 12.0 15.0 0.00 0.00 0.00 44 1007.4
20260507233042 99 121 9.0 18.0 0.00 0.00 0.00 44 1007.3
20260507231550 100 105 9.0 15.0 0.00 0.00 0.00 43 1007.0
20260507230041 100 143 8.0 16.0 0.00 0.00 0.00 42 1007.0
20260507224553 100 132 9.0 13.0 0.00 0.00 0.00 42 1006.9
20260507223040 100 128 6.0 14.0 0.00 0.00 0.00 41 1006.8
20260507221539 101 103 9.0 14.0 0.00 0.00 0.00 41 1006.8
20260507220039 100 43 9.0 17.0 0.00 0.00 0.00 42 1006.8
20260507214535 101 41 4.0 16.0 0.00 0.00 0.00 41 1007.0
20260507213034 101 105 7.0 14.0 0.00 0.00 0.00 41 1007.1
20260507211532 100 125 5.0 16.0 0.00 0.00 0.00 42 1007.3
20260507210029 100 153 6.0 14.0 0.00 0.00 0.00 42 1007.5
20260507204528 101 134 7.0 14.0 0.00 0.00 0.00 43 1007.7
20260507203025 100 155 7.0 23.0 0.00 0.00 0.00 44 1007.8
20260507201524 100 165 9.0 14.0 0.00 0.00 0.00 42 1008.0
20260507200032 100 148 10.0 19.0 0.00 0.00 0.00 44 1008.2
20260507194619 100 103 8.0 17.0 0.00 0.00 0.00 45 1008.4
20260507193017 99 144 6.0 21.0 0.00 0.00 0.00 46 1008.7
20260507191512 99 146 10.0 14.0 0.00 0.00 0.00 46 1009.0
20260507190020 99 95 11.0 19.0 0.00 0.00 0.00 46 1009.3
20260507184503 98 144 9.0 18.0 0.00 0.00 0.00 48 1009.5
20260507183100 97 113 13.0 20.0 0.00 0.00 0.00 50 1009.9
20260507181558 96 134 7.0 18.0 0.00 0.00 0.00 51 1010.1
20260507180054 97 140 12.0 21.0 0.00 0.00 0.00 51 1010.2
20260507174551 95 144 9.0 17.0 0.00 0.00 0.00 54 1010.6
20260507173053 94 148 10.0 19.0 0.00 0.00 0.00 55 1011.0
20260507171549 94 123 12.0 20.0 0.00 0.00 0.00 53 1011.2
20260507170044 94 104 7.0 19.0 0.00 0.00 0.00 56 1011.1
20260507164539 93 146 9.0 21.0 0.00 0.00 0.00 58 1011.2
20260507163035 92 107 13.0 22.0 0.00 0.00 0.00 59 1011.3
20260507161532 91 107 12.0 17.0 0.00 0.00 0.00 61 1011.7
20260507160037 91 148 14.0 21.0 0.00 0.00 0.00 62 1011.9
20260507154532 90 130 13.0 20.0 0.00 0.00 0.00 63 1012.0
20260507153026 89 125 15.0 22.0 0.00 0.00 0.00 65 1012.0
20260507151523 89 88 12.0 21.0 0.00 0.00 0.00 66 1012.3
20260507150020 88 183 12.0 21.0 0.00 0.00 0.00 67 1012.3
20260507144516 87 143 15.0 24.0 0.00 0.00 0.00 68 1012.2
20260507143012 86 128 15.0 24.0 0.00 0.00 0.00 71 1012.3
20260507141509 85 146 17.0 24.0 0.00 0.00 0.00 73 1012.4
20260507140127 84 111 15.0 24.0 0.00 0.00 0.00 75 1012.4
20260507134501 82 136 12.0 22.0 0.00 0.00 0.00 79 1012.3
20260507133058 82 142 7.0 17.0 0.00 0.00 0.00 81 1012.2
20260507131604 80 138 12.0 20.0 0.00 0.00 0.00 84 1012.2
20260507130103 78 128 9.0 15.0 0.00 0.00 0.00 86 1012.1
20260507124603 77 124 9.0 17.0 0.00 0.00 0.00 87 1011.9
20260507123054 76 138 8.0 13.0 0.00 0.00 0.00 87 1011.6
20260507121543 76 125 7.0 13.0 0.00 0.00 0.00 87 1011.7
20260507120035 76 105 6.0 14.0 0.00 0.00 0.00 87 1011.4
20260507114530 76 123 7.0 10.0 0.00 0.00 0.00 87 1011.2
20260507113033 76 99 6.0 12.0 0.00 0.00 0.00 87 1011.2
20260507111526 76 71 5.0 10.0 0.00 0.00 0.00 87 1011.1
20260507110028 76 119 6.0 10.0 0.00 0.00 0.00 86 1011.0
20260507104625 76 123 6.0 12.0 0.00 0.00 0.00 86 1010.9
20260507103021 76 107 5.0 13.0 0.00 0.00 0.00 86 1010.8
20260507101528 77 125 9.0 14.0 0.00 0.00 0.00 86 1010.6
20260507100025 77 134 8.0 14.0 0.00 0.00 0.00 85 1010.4
20260507094521 77 130 8.0 14.0 0.00 0.00 0.00 85 1010.4
20260507093032 77 132 9.0 14.0 0.00 0.00 0.00 84 1010.4
20260507091514 77 137 9.0 17.0 0.00 0.00 0.00 84 1010.6
20260507090019 78 131 9.0 13.0 0.00 0.00 0.00 83 1010.5
20260507084511 78 123 9.0 13.0 0.00 0.00 0.00 83 1010.5
20260507083015 78 132 9.0 16.0 0.00 0.00 0.00 83 1010.7
20260507081506 78 132 11.0 17.0 0.00 0.00 0.00 82 1010.8
20260507080136 78 137 10.0 15.0 0.00 0.00 0.00 82 1010.8
20260507074505 79 138 8.0 16.0 0.00 0.00 0.00 81 1011.1
20260507073111 79 125 11.0 15.0 0.00 0.00 0.00 80 1011.4
20260507071656 79 135 12.0 16.0 0.00 0.00 0.00 80 1011.3
20260507070054 80 103 8.0 14.0 0.00 0.00 0.00 79 1011.3
20260507064555 80 105 10.0 16.0 0.00 0.00 0.00 79 1011.7
20260507063054 80 125 9.0 16.0 0.00 0.00 0.00 78 1011.7
20260507061548 81 141 9.0 19.0 0.00 0.00 0.00 78 1011.6
20260507060046 81 134 13.0 21.0 0.00 0.00 0.00 77 1011.6
20260507054552 81 119 10.0 20.0 0.00 0.00 0.00 76 1011.8
20260507053047 82 129 16.0 23.0 0.00 0.00 0.00 75 1011.8
20260507051544 82 130 17.0 24.0 0.00 0.00 0.00 74 1011.8